SWR3HY LSGG-LSZH

Flight info

Callsign SWR3HY
Flight time 0h 33m
Altitude 17000
Route SOSAL N871 BERSU
Aircraft A321/M-SDE2E3FGIJ1RWXY/LB1

Departure

Time 2026-05-04 10:45
Airport Geneva International Airport (LSGG)

Arrival

Time 2026-05-04 11:19
Airport Zürich Airport (LSZH)
Time Latitude Longitude Altitude Speed Heading
2026-05-04 10:14 46.23033 6.10569 1398 ft 0 kts 136°
2026-05-04 10:36 46.23037 6.10563 1398 ft 4 kts 136°
2026-05-04 10:37 46.23054 6.10540 1398 ft 3 kts 135°
2026-05-04 10:37 46.23066 6.10513 1407 ft 4 kts 83°
2026-05-04 10:37 46.23053 6.10488 1398 ft 4 kts 36°
2026-05-04 10:37 46.23039 6.10472 1398 ft 0 kts 45°
2026-05-04 10:39 46.23043 6.10478 1402 ft 4 kts 45°
2026-05-04 10:40 46.23080 6.10472 1404 ft 8 kts 319°
2026-05-04 10:40 46.23129 6.10403 1398 ft 12 kts 315°
2026-05-04 10:40 46.23208 6.10365 1400 ft 16 kts 41°
2026-05-04 10:40 46.23292 6.10487 1403 ft 18 kts 45°
2026-05-04 10:41 46.23389 6.10627 1397 ft 21 kts 40°
2026-05-04 10:41 46.23497 6.10776 1406 ft 22 kts 45°
2026-05-04 10:41 46.23611 6.10943 1398 ft 24 kts 45°
2026-05-04 10:41 46.23731 6.11119 1387 ft 25 kts 45°
2026-05-04 10:42 46.23856 6.11301 1381 ft 26 kts 45°
2026-05-04 10:42 46.23988 6.11494 1375 ft 28 kts 45°
2026-05-04 10:42 46.24127 6.11699 1372 ft 29 kts 45°
2026-05-04 10:42 46.24274 6.11915 1367 ft 31 kts 45°
2026-05-04 10:43 46.24407 6.12108 1374 ft 34 kts 45°
2026-05-04 10:44 46.24910 6.12516 1377 ft 49 kts 226°
2026-05-04 10:45 46.24493 6.11905 1377 ft 119 kts 225°
2026-05-04 10:45 46.23773 6.10845 1387 ft 174 kts 225°
2026-05-04 10:45 46.22893 6.09563 1920 ft 183 kts 225°
2026-05-04 10:45 46.21975 6.08238 2670 ft 188 kts 225°
2026-05-04 10:46 46.20990 6.06847 2994 ft 207 kts 224°
2026-05-04 10:46 46.19880 6.05289 3150 ft 233 kts 224°
2026-05-04 10:46 46.18753 6.03675 3957 ft 231 kts 225°
2026-05-04 10:46 46.17634 6.01982 4661 ft 235 kts 225°
2026-05-04 10:47 46.16492 6.00267 5335 ft 239 kts 225°
2026-05-04 10:47 46.15326 5.98531 6011 ft 242 kts 224°
2026-05-04 10:47 46.14139 5.96779 6722 ft 245 kts 224°
2026-05-04 10:47 46.12931 5.95030 7425 ft 247 kts 220°
2026-05-04 10:49 46.07543 6.03579 11834 ft 267 kts 45°
2026-05-04 10:49 46.09083 6.05103 12455 ft 270 kts 28°
2026-05-04 10:50 46.10779 6.06341 13054 ft 274 kts 30°
2026-05-04 10:51 46.20579 6.23658 14842 ft 374 kts 54°
2026-05-04 10:52 46.22182 6.26703 15049 ft 388 kts 53°
2026-05-04 10:52 46.23823 6.29821 15238 ft 400 kts 53°
2026-05-04 10:52 46.25540 6.33083 15493 ft 410 kts 53°
2026-05-04 10:54 46.38111 6.56812 18388 ft 438 kts 51°
2026-05-04 10:54 46.40050 6.60251 18799 ft 441 kts 51°
2026-05-04 10:56 46.53815 6.84878 21457 ft 457 kts 52°
2026-05-04 10:56 46.55816 6.88487 21813 ft 460 kts 52°
2026-05-04 10:56 46.57829 6.92112 22031 ft 459 kts 52°
2026-05-04 10:57 46.59785 6.95622 22056 ft 444 kts 52°
2026-05-04 10:57 46.61726 6.99112 22043 ft 442 kts 52°
2026-05-04 10:57 46.63670 7.02604 22028 ft 442 kts 52°
2026-05-04 10:57 46.65605 7.06093 22020 ft 443 kts 52°
2026-05-04 10:58 46.67541 7.09584 22019 ft 442 kts 52°
2026-05-04 10:58 46.69455 7.13040 22021 ft 442 kts 52°
2026-05-04 10:58 46.71381 7.16531 22023 ft 442 kts 52°
2026-05-04 10:58 46.73316 7.20043 22021 ft 442 kts 52°
2026-05-04 10:59 46.75243 7.23545 22021 ft 441 kts 52°
2026-05-04 10:59 46.77165 7.27041 22019 ft 441 kts 52°
2026-05-04 10:59 46.79069 7.30509 22016 ft 442 kts 52°
2026-05-04 10:59 46.80993 7.34019 22009 ft 441 kts 52°
2026-05-04 11:00 46.82906 7.37513 22005 ft 442 kts 52°
2026-05-04 11:01 46.96278 7.62085 21997 ft 440 kts 52°
2026-05-04 11:02 46.98158 7.65562 21990 ft 440 kts 52°
2026-05-04 11:02 47.00063 7.69096 21996 ft 440 kts 52°
2026-05-04 11:05 47.21736 8.18107 16501 ft 385 kts 46°
2026-05-04 11:06 47.23853 8.20420 15931 ft 382 kts 27°
2026-05-04 11:06 47.26176 8.21566 15427 ft 378 kts
2026-05-04 11:06 47.28783 8.21580 14914 ft 371 kts 348°
2026-05-04 11:06 47.31189 8.20348 14423 ft 362 kts 328°
2026-05-04 11:08 47.46305 8.13248 11190 ft 340 kts 39°
2026-05-04 11:10 47.55118 8.25183 9211 ft 284 kts 318°
2026-05-04 11:12 47.65528 8.19913 6636 ft 264 kts 48°
2026-05-04 11:12 47.66721 8.21945 6442 ft 257 kts 52°
2026-05-04 11:12 47.67505 8.24257 6317 ft 249 kts 78°
2026-05-04 11:12 47.67412 8.26752 6165 ft 244 kts 109°
2026-05-04 11:13 47.66525 8.28865 5972 ft 239 kts 131°
2026-05-04 11:13 47.65348 8.30527 5798 ft 229 kts 138°
2026-05-04 11:13 47.64136 8.32013 5585 ft 222 kts 139°
2026-05-04 11:13 47.62961 8.33470 5342 ft 220 kts 138°
2026-05-04 11:14 47.61827 8.34947 5046 ft 220 kts 136°
2026-05-04 11:14 47.60689 8.36498 4741 ft 222 kts 136°
2026-05-04 11:14 47.59558 8.38051 4409 ft 220 kts 136°
2026-05-04 11:16 47.52714 8.47439 2696 ft 153 kts 135°
2026-05-04 11:16 47.51945 8.48485 2422 ft 150 kts 135°
2026-05-04 11:16 47.51444 8.49173 2314 ft 149 kts 135°
2026-05-04 11:17 47.50441 8.50566 2067 ft 149 kts 135°
2026-05-04 11:17 47.49921 8.51264 1903 ft 149 kts 136°
2026-05-04 11:19 47.46424 8.55737 1403 ft 15 kts 166°
2026-05-04 11:19 47.46332 8.55831 1409 ft 18 kts 138°
2026-05-04 11:19 47.46233 8.55963 1410 ft 20 kts 136°
2026-05-04 11:19 47.46114 8.55995 1407 ft 19 kts 187°
2026-05-04 11:20 47.45973 8.55971 1403 ft 22 kts 190°
2026-05-04 11:20 47.45836 8.55899 1403 ft 22 kts 200°
2026-05-04 11:20 47.45706 8.55867 1409 ft 14 kts 185°
2026-05-04 11:20 47.45602 8.55852 1403 ft 16 kts 186°
2026-05-04 11:22 47.45278 8.55648 1402 ft 14 kts 49°
2026-05-04 11:22 47.45314 8.55647 1402 ft 2 kts 340°
2026-05-04 11:23 47.45335 8.55646 1402 ft 0 kts
2026-05-04 11:24 47.45353 8.55649 1402 ft 0 kts